Location: Unspecified
(36.7603°N, 0.0000°E)
Time: 06:15:59
(UTC+00:00)

Courier 1B Rocket - All Passes

Search period start: 05 April 2026 00:00
Search period end: 15 April 2026 00:00
Orbit: 920 x 1201 km, 28.2° (Epoch: 28 March)

Date Brightness Start Highest point End Pass type
(mag) Time Alt. Az. Time Alt. Az. Time Alt. Az.
5 Apr - 01:03:51 10° SW 01:09:23 34° S 01:15:01 10° ESE night (unlit)
5 Apr - 02:56:30 10° WSW 03:02:13 38° S 03:08:10 10° ESE visible
5 Apr - 04:49:55 10° WSW 04:55:02 25° SSW 05:00:23 10° SE visible
5 Apr - 22:12:53 10° S 22:15:49 13° SSE 22:18:43 10° SE night (unlit)
6 Apr - 00:03:03 10° SW 00:08:23 30° SSE 00:13:42 10° ESE night (unlit)
6 Apr - 01:55:27 10° WSW 02:01:10 39° S 02:07:01 10° ESE visible
6 Apr - 03:48:37 10° WSW 03:53:59 30° SSW 03:59:36 10° SE visible
6 Apr - 05:43:27 10° SW 05:46:40 14° SSW 05:49:59 10° S daylight
6 Apr - 23:02:26 10° SW 23:07:24 24° SSE 23:12:18 10° ESE night (unlit)
7 Apr - 00:54:26 10° WSW 01:00:08 37° S 01:05:51 10° ESE night (unlit)
7 Apr - 02:47:25 10° WSW 02:52:57 34° S 02:58:40 10° SE visible
7 Apr - 04:41:23 10° WSW 04:45:40 19° SSW 04:50:05 10° SSE visible
7 Apr - 22:02:01 10° SSW 22:06:25 19° SSE 22:10:43 10° ESE night (unlit)
7 Apr - 23:53:29 10° SW 23:59:06 34° S 00:04:40 10° ESE night (unlit)
8 Apr - 01:46:16 10° WSW 01:51:55 37° S 01:57:40 10° ESE visible
8 Apr - 03:39:48 10° WSW 03:44:39 24° SSW 03:49:40 10° SSE visible
8 Apr - 21:02:05 10° S 21:05:27 14° SSE 21:08:44 10° SE visible
8 Apr - 22:52:35 10° SW 22:58:05 30° SSE 23:03:27 10° ESE night (unlit)
9 Apr - 00:45:08 10° WSW 00:50:54 38° S 00:56:37 10° ESE night (unlit)
9 Apr - 02:38:25 10° WSW 02:43:40 29° SSW 02:49:01 10° SE visible
9 Apr - 04:33:33 10° SW 04:36:16 13° SSW 04:39:01 10° S visible
9 Apr - 21:51:50 10° SW 21:57:05 25° SSE 22:02:08 10° ESE visible
9 Apr - 23:44:02 10° WSW 23:49:51 38° S 23:55:32 10° ESE night (unlit)
10 Apr - 01:37:08 10° WSW 01:42:40 33° S 01:48:12 10° SE night (unlit)
10 Apr - 03:31:18 10° WSW 03:35:18 18° SSW 03:39:23 10° SSE visible
10 Apr - 20:51:16 10° SSW 20:56:03 20° SSE 21:00:38 10° ESE visible
10 Apr - 22:42:57 10° SW 22:48:48 35° S 22:54:27 10° ESE night (unlit)
11 Apr - 00:35:54 10° WSW 00:41:39 37° S 00:47:18 10° ESE night (unlit)
11 Apr - 02:29:35 10° WSW 02:34:20 23° SSW 02:39:08 10° SSE visible
11 Apr - 19:51:07 10° S 19:55:01 16° SSE 19:58:47 10° ESE visible
11 Apr - 21:41:57 10° SW 21:47:45 31° SSE 21:53:17 10° ESE visible
11 Apr - 23:34:40 10° WSW 23:40:36 39° S 23:46:21 10° ESE night (unlit)
12 Apr - 01:28:07 10° WSW 01:33:22 28° SSW 01:38:35 10° SE night (unlit)
12 Apr - 03:23:35 10° SW 03:25:54 12° SSW 03:28:13 10° S visible
12 Apr - 18:52:00 10° S 18:53:58 11° SSE 18:55:53 10° SE visible
12 Apr - 20:41:04 10° SW 20:46:40 27° SSE 20:52:01 10° ESE visible
12 Apr - 22:33:27 10° WSW 22:39:32 39° S 22:45:20 10° ESE visible
13 Apr - 00:26:44 10° WSW 00:32:22 33° S 00:37:53 10° SE night (unlit)
13 Apr - 02:21:05 10° WSW 02:24:59 17° SSW 02:28:52 10° SSE night (unlit)
13 Apr - 19:40:23 10° SSW 19:45:36 22° SSE 19:50:34 10° ESE visible
13 Apr - 21:32:16 10° WSW 21:38:27 37° S 21:44:17 10° ESE visible
13 Apr - 23:25:23 10° WSW 23:31:21 38° S 23:37:04 10° ESE night (unlit)
14 Apr - 01:19:14 10° WSW 01:24:02 23° SSW 01:28:46 10° SSE night (unlit)
14 Apr - 18:40:04 10° SSW 18:44:30 17° SSE 18:48:46 10° ESE daylight
14 Apr - 20:31:10 10° SW 20:37:20 33° SSE 20:43:08 10° ESE visible
14 Apr - 22:24:02 10° WSW 22:30:16 40° S 22:36:09 10° ESE visible
